FW3296 Weather Reports


time (UTC)temp
C
wind
direction
speed
KPH
gust
KPH
rain 1hr
cm
rain 24hr
cm
rain mn
cm
humidity
%
barometer
mb
20260506010516 8 28 6.4 12.9 0.00 0.00 0.00 92 1013.6
20260506005516 8 35 6.4 12.9 0.00 0.00 0.00 92 1013.6
20260506004516 8 45 4.8 11.3 0.00 0.00 0.00 91 1013.6
20260506003517 8 40 6.4 16.1 0.00 0.00 0.00 91 1013.7
20260506002516 8 32 8.0 17.7 0.00 0.00 0.00 91 1013.8
20260506001516 8 32 8.0 16.1 0.00 0.00 0.00 91 1013.8
20260506000536 8 38 8.0 14.5 0.00 0.00 0.00 91 1013.8
20260505235516 8 39 9.7 19.3 0.00 0.00 0.00 91 1013.8
20260505234516 8 38 8.0 14.5 0.00 0.00 0.00 90 1013.8
20260505233516 8 29 9.7 17.7 0.00 0.00 0.00 90 1013.9
20260505232516 8 31 9.7 17.7 0.00 0.00 0.00 90 1014.0
20260505231536 8 37 6.4 16.1 0.00 0.00 0.00 90 1014.0
20260505230517 8 33 8.0 16.1 0.00 0.00 0.00 89 1014.0
20260505225516 8 35 9.7 16.1 0.00 0.00 0.00 89 1014.0
20260505224517 8 29 9.7 16.1 0.00 0.00 0.00 88 1014.1
20260505223517 8 32 8.0 17.7 0.00 0.00 0.00 88 1014.0
20260505222516 8 34 9.7 17.7 0.00 0.00 0.00 88 1014.1
20260505221516 8 32 8.0 17.7 0.00 0.00 0.00 87 1014.2
20260505220517 8 37 8.0 16.1 0.00 0.00 0.00 86 1014.2
20260505215516 8 35 8.0 16.1 0.00 0.00 0.00 86 1014.3
20260505214516 8 28 8.0 17.7 0.00 0.00 0.00 85 1014.4
20260505213516 8 30 8.0 17.7 0.00 0.00 0.00 85 1014.3
20260505212516 8 33 9.7 17.7 0.00 0.00 0.00 84 1014.4
20260505211516 8 31 9.7 20.9 0.00 0.00 0.00 84 1014.4
20260505210516 8 38 8.0 14.5 0.00 0.00 0.00 83 1014.4
20260505205516 8 39 8.0 14.5 0.00 0.00 0.00 83 1014.4
20260505204516 8 32 8.0 16.1 0.00 0.00 0.00 82 1014.3
20260505203516 9 31 8.0 17.7 0.00 0.00 0.00 82 1014.4
20260505202516 9 31 8.0 16.1 0.00 0.00 0.00 82 1014.3
20260505201516 9 30 9.7 16.1 0.00 0.00 0.00 81 1014.3
20260505200516 9 34 8.0 19.3 0.00 0.00 0.00 80 1014.1
20260505195536 10 29 8.0 17.7 0.00 0.00 0.00 79 1014.2
20260505194516 10 34 8.0 17.7 0.00 0.00 0.00 78 1014.0
20260505193516 10 30 8.0 17.7 0.00 0.00 0.00 78 1014.0
20260505192516 10 33 8.0 16.1 0.00 0.00 0.00 77 1013.9
20260505191516 11 31 9.7 17.7 0.00 0.00 0.00 74 1013.9
20260505190516 11 30 8.0 17.7 0.00 0.00 0.00 72 1013.8
20260505185516 12 31 11.3 27.4 0.00 0.00 0.00 69 1013.8
20260505184516 12 30 11.3 22.5 0.00 0.00 0.00 67 1013.8
20260505183517 12 30 11.3 19.3 0.00 0.00 0.00 65 1013.9
20260505182516 13 30 12.9 22.5 0.00 0.00 0.00 65 1013.9
20260505181516 13 24 8.0 20.9 0.00 0.00 0.00 65 1013.8
20260505180536 13 32 11.3 22.5 0.00 0.00 0.00 65 1013.9
20260505175516 13 34 9.7 20.9 0.00 0.00 0.00 68 1013.7
20260505174516 13 5 8.0 19.3 0.00 0.00 0.00 69 1013.8
20260505173536 13 17 9.7 24.1 0.00 0.00 0.00 69 1013.8
20260505172516 14 22 8.0 16.1 0.00 0.00 0.00 67 1013.9
20260505171516 15 32 8.0 19.3 0.00 0.00 0.00 67 1013.8
20260505170516 14 28 9.7 22.5 0.00 0.00 0.00 68 1013.8
20260505165516 15 4 8.0 20.9 0.00 0.00 0.00 67 1013.9
20260505164515 15 24 9.7 20.9 0.00 0.00 0.00 68 1013.9
20260505163516 15 6 8.0 17.7 0.00 0.00 0.00 67 1014.0
20260505162516 15 7 9.7 20.9 0.00 0.00 0.00 66 1013.9
20260505161516 16 27 8.0 17.7 0.00 0.00 0.00 66 1014.0
20260505160516 15 25 8.0 19.3 0.00 0.00 0.00 66 1014.0
20260505152516 16 36 11.3 22.5 0.00 0.00 0.00 59 1014.0
20260505151516 16 25 8.0 17.7 0.00 0.00 0.00 58 1014.0
20260505150516 16 31 11.3 22.5 0.00 0.00 0.00 58 1014.1
20260505140515 16 38 11.3 20.9 0.00 0.00 0.00 60 1014.3
20260505124516 13 10 6.4 19.3 0.00 0.00 0.00 80 1014.5
20260505123515 14 22 6.4 17.7 0.00 0.00 0.00 80 1014.4
20260505122515 14 32 11.3 24.1 0.00 0.00 0.00 78 1014.5
20260505121515 14 33 11.3 20.9 0.00 0.00 0.00 78 1014.5
20260505120515 14 26 11.3 19.3 0.00 0.00 0.00 78 1014.6
20260505115515 13 27 9.7 22.5 0.00 0.00 0.00 82 1014.5
20260505114515 13 31 8.0 19.3 0.00 0.00 0.00 84 1014.5
20260505113515 12 33 9.7 17.7 0.00 0.00 0.00 86 1014.5
20260505112515 12 38 6.4 14.5 0.00 0.00 0.00 86 1014.5
20260505111515 12 40 6.4 17.7 0.00 0.00 0.00 87 1014.6
20260505110515 11 35 9.7 22.5 0.00 0.00 0.00 87 1014.7
20260505101515 11 38 11.3 19.3 0.00 0.00 0.00 91 1014.8
20260505100515 11 44 9.7 17.7 0.00 0.00 0.00 93 1014.7
20260505095515 11 34 11.3 17.7 0.00 0.00 0.00 94 1014.6
20260505094515 11 40 4.8 14.5 0.00 0.00 0.00 96 1014.6
20260505093515 10 46 8.0 14.5 0.00 0.00 0.00 96 1014.5
20260505092515 10 35 6.4 14.5 0.00 0.00 0.00 96 1014.5
20260505091515 10 38 8.0 20.9 0.00 0.00 0.00 97 1014.5
20260505090515 10 37 6.4 17.7 0.00 0.00 0.00 98 1014.5
20260505085515 10 35 9.7 20.9 0.00 0.00 0.00 99 1014.5
20260505084515 10 21 6.4 16.1 0.00 0.00 0.00 99 1014.5
20260505083515 10 39 6.4 12.9 0.00 0.00 0.00 99 1014.4
20260505082514 10 41 4.8 9.7 0.00 0.00 0.00 99 1014.5
20260505081555 10 35 6.4 11.3 0.00 0.00 0.00 99 1014.5
20260505080517 10 48 6.4 9.7 0.00 0.00 0.00 99 1014.4
20260505075517 10 47 6.4 11.3 0.00 0.00 0.00 99 1014.4
20260505074516 10 43 4.8 11.3 0.00 0.00 0.00 99 1014.4
20260505073517 10 39 6.4 14.5 0.00 0.00 0.00 99 1014.4
20260505072537 9 50 6.4 11.3 0.00 0.00 0.00 99 1014.4
20260505071517 8 42 4.8 11.3 0.00 0.00 0.00 99 1014.4
20260505070516 8 38 6.4 9.7 0.00 0.00 0.00 99 1014.4
20260505065516 8 55 6.4 11.3 0.00 0.00 0.00 99 1014.3
20260505064516 8 52 4.8 9.7 0.00 0.00 0.00 99 1014.4
20260505063517 8 51 3.2 8.0 0.00 0.00 0.00 99 1014.4
20260505062516 8 52 3.2 6.4 0.00 0.00 0.00 99 1014.3
20260505061516 8 52 3.2 6.4 0.00 0.00 0.00 99 1014.3
20260505060517 8 52 4.8 8.0 0.00 0.00 0.00 99 1014.3
20260505055537 8 49 4.8 9.7 0.00 0.00 0.00 99 1014.3
20260505054516 8 55 4.8 6.4 0.00 0.00 0.00 98 1014.3
20260505053517 8 57 3.2 6.4 0.00 0.00 0.00 98 1014.2
20260505052516 8 56 4.8 6.4 0.00 0.00 0.00 98 1014.3
20260505051516 8 56 4.8 9.7 0.00 0.00 0.00 98 1014.3
20260505050516 8 59 4.8 8.0 0.00 0.00 0.00 98 1014.3
20260505041516 9 51 6.4 11.3 0.00 0.00 0.00 98 1014.2
20260505040516 9 43 4.8 12.9 0.00 0.00 0.00 98 1014.2
20260505035516 9 44 6.4 11.3 0.00 0.00 0.00 98 1014.1
20260505034516 9 51 4.8 9.7 0.00 0.00 0.00 98 1014.1
20260505033536 9 56 4.8 8.0 0.00 0.00 0.00 98 1014.0
20260505032536 9 57 4.8 9.7 0.00 0.00 0.00 98 1014.0
20260505031516 10 57 4.8 9.7 0.00 0.00 0.00 98 1014.1
20260505030516 10 58 4.8 11.3 0.00 0.00 0.00 98 1014.1
20260505025516 10 57 4.8 9.7 0.00 0.00 0.00 98 1014.2
20260505024537 10 61 4.8 8.0 0.00 0.00 0.00 98 1014.2
20260505023516 10 60 4.8 9.7 0.00 0.00 0.00 98 1014.2
20260505022516 10 59 4.8 9.7 0.00 0.00 0.00 98 1014.2
20260505021536 10 58 4.8 8.0 0.00 0.00 0.00 98 1014.3
20260505020516 10 57 4.8 9.7 0.00 0.00 0.00 98 1014.3
20260505015516 10 58 4.8 8.0 0.00 0.00 0.00 98 1014.3
20260505014516 10 57 4.8 9.7 0.00 0.00 0.00 98 1014.5
20260505013516 10 55 4.8 8.0 0.00 0.00 0.00 98 1014.6
20260505012516 10 55 3.2 9.7 0.00 0.00 0.00 98 1014.7